Weather Roundup
Issued by NWS Corpus Christi, TX

Home | Current Version | Previous Version | Text Only | Print | Product List | Glossary On
Versions: 1 2 3 4 5 6 7 8 9 10 11 12 13 14 15 16 17 18 19 20 21 22 23 24 25 26 27 28 29 30 31 32 33 34 35 36 37 38 39 40 41 42 43 44 45 46 47 48 49 50
000
ASUS44 KCRP 260810
HRRCRP

SOUTH TEXAS REGIONAL WEATHER ROUNDUP
NATIONAL WEATHER SERVICE CORPUS CHRISTI TX
200 AM CST FRI DEC 26 2014


TXZ229>244-260900-
...CORPUS CHRISTI AREA OBSERVATIONS...

CITY           SKY/WX    TMP DP  RH WIND       PRES   REMARKS
CORPUS CHRISTI CLOUDY    65  57  75 SE15      29.95F
NAS CORPUS CHR CLOUDY    65  59  81 S15       29.96F
ROCKPORT       CLOUDY    66  57  72 S12G20    29.96F
KINGSVILLE NAS CLOUDY    65  59  81 SE14      29.95F
ALICE          CLOUDY    65  57  75 S15       29.94S
FALFURRIAS     CLOUDY    64  57  77 SE9       29.94S
$$

...VICTORIA AREA OBSERVATIONS...

CITY           SKY/WX    TMP DP  RH WIND       PRES   REMARKS
VICTORIA       CLOUDY    60  56  86 SE3       29.99S
BEEVILLE       CLOUDY    64  55  74 S12       29.97R
PLEASANTON     CLOUDY    56  49  78 CALM      29.97F
SAN ANTONIO    CLOUDY    55  49  80 SE5       29.98F
$$

...LAREDO AREA OBSERVATIONS...

CITY           SKY/WX    TMP DP  RH WIND       PRES   REMARKS
LAREDO         NOT AVBL
COTULLA        CLOUDY   N/A N/A N/A E6        29.94F
DEL RIO        CLOUDY    52  42  69 SE12      29.89F
MCALLEN        CLOUDY    63  58  83 SE9       29.94F
HEBBRONVILLE   PTCLDY    59  54  84 SE14G20   29.93F
$$

...OTHER TEXAS OBSERVATIONS...

CITY           SKY/WX    TMP DP  RH WIND       PRES   REMARKS
BROWNSVILLE    CLOUDY    65  62  90 S12       29.96F
HOUSTON        MOCLDY    57  51  80 S3        30.03S
COL. STATION   CLOUDY    57  49  74 S14       30.00S
AUSTIN         CLOUDY    55  50  83 S13       29.97F
WACO           CLOUDY    52  46  80 S9        29.96F
FORT WORTH     MOCLDY    51  44  77 S12       29.94S
WICHITA FALLS  CLOUDY    49  32  52 S15       29.82S
LUBBOCK        PTCLDY    42  28  57 S9        29.76S
EL PASO        PTCLDY    51  22  31 SW14      29.75S
$$

...MARINE OBSERVATIONS...

STATION/POSITION TIME  SKY/WX   TEMP    WIND        PRES    VSBY  WAVE   SWELL
                                AIR SEA DIR/SP/G                  HT/PER HT/PER
                 (UTC)          (F)     (DEG/KT/KT) (MB)    (MI)  (FT/S) (FT/S)
PORT ARANSAS     0800            66 60  150/ 20/ 22 1014.9F
BUOY 90 E PORT A 0800            69 72  160/ 23/ 27 1016.4F         8/ 7
BUOY 45 SE BAFFI 0800            70 72  160/ 21/ 25 1014.3F         7/ 7
BUOY 200 E PT IS 0800            70 73  160/ 19/ 23 1017.5F         5/ 5
BUOY 15 E GALVES 0800            64 60  160/ 16/ 17 1017.0S         6/ 6
$$



USA.gov is the U.S. government's official web portal to all federal, state and local government web resources and services.